Time,TemperatureF,DewpointF,PressureIn,WindDirection,WindDirectionDegrees,WindSpeedMPH,WindSpeedGustMPH,Humidity,HourlyPrecipIn,Conditions,Clouds,dailyrainin,SoftwareType,DateUTC
2013-05-26 00:04:00,67.6,26.2,29.60,West,259,4.0,10.0,21,0.00,,,0.00,Wunderground v.1.15,2013-05-26 06:04:00,
2013-05-26 00:10:00,67.1,26.9,29.60,NW,306,4.0,5.0,22,0.00,,,0.00,Wunderground v.1.15,2013-05-26 06:10:00,
2013-05-26 00:16:00,66.8,26.7,29.60,WNW,294,4.0,7.0,22,0.00,,,0.00,Wunderground v.1.15,2013-05-26 06:16:00,
2013-05-26 00:22:00,66.6,27.6,29.60,West,269,4.0,5.0,23,0.00,,,0.00,Wunderground v.1.15,2013-05-26 06:22:00,
2013-05-26 00:28:00,66.4,26.4,29.60,WSW,253,5.0,6.0,22,0.00,,,0.00,Wunderground v.1.15,2013-05-26 06:28:00,
2013-05-26 00:34:00,66.6,27.6,29.61,West,270,4.0,5.0,23,0.00,,,0.00,Wunderground v.1.15,2013-05-26 06:34:00,
2013-05-26 00:40:00,66.4,28.5,29.61,West,266,3.0,3.0,24,0.00,,,0.00,Wunderground v.1.15,2013-05-26 06:40:00,
2013-05-26 00:46:00,66.1,28.2,29.61,WSW,242,3.0,5.0,24,0.00,,,0.00,Wunderground v.1.15,2013-05-26 06:46:00,
2013-05-26 00:52:00,66.0,28.1,29.61,WSW,242,3.0,3.0,24,0.00,,,0.00,Wunderground v.1.15,2013-05-26 06:52:00,
2013-05-26 00:58:00,66.0,29.1,29.61,WSW,238,3.0,3.0,25,0.00,,,0.00,Wunderground v.1.15,2013-05-26 06:58:00,
2013-05-26 01:04:00,66.0,30.1,29.61,SW,226,3.0,10.0,26,0.00,,,0.00,Wunderground v.1.15,2013-05-26 07:04:00,
2013-05-26 01:10:00,65.8,29.0,29.61,WSW,245,3.0,3.0,25,0.00,,,0.00,Wunderground v.1.15,2013-05-26 07:10:00,
2013-05-26 01:16:00,65.6,29.8,29.61,WSW,248,3.0,3.0,26,0.00,,,0.00,Wunderground v.1.15,2013-05-26 07:16:00,
2013-05-26 01:22:00,65.2,31.2,29.61,WSW,248,2.0,2.0,28,0.00,,,0.00,Wunderground v.1.15,2013-05-26 07:22:00,
2013-05-26 01:28:00,65.0,29.2,29.61,WSW,255,2.0,5.0,26,0.00,,,0.00,Wunderground v.1.15,2013-05-26 07:28:00,
2013-05-26 01:34:00,65.2,27.5,29.62,WNW,302,3.0,5.0,24,0.00,,,0.00,Wunderground v.1.15,2013-05-26 07:34:00,
2013-05-26 01:40:00,65.5,24.5,29.62,WNW,288,4.0,4.0,21,0.00,,,0.00,Wunderground v.1.15,2013-05-26 07:40:00,
2013-05-26 01:46:00,65.6,23.4,29.61,West,278,4.0,6.0,20,0.00,,,0.00,Wunderground v.1.15,2013-05-26 07:46:00,
2013-05-26 01:52:00,66.0,23.7,29.61,West,271,4.0,4.0,20,0.00,,,0.00,Wunderground v.1.15,2013-05-26 07:52:00,
2013-05-26 01:58:00,65.6,23.4,29.61,West,264,4.0,4.0,20,0.00,,,0.00,Wunderground v.1.15,2013-05-26 07:58:00,
2013-05-26 02:04:00,65.5,23.3,29.61,West,264,3.0,7.0,20,0.00,,,0.00,Wunderground v.1.15,2013-05-26 08:04:00,
2013-05-26 02:10:00,65.3,21.9,29.61,West,264,2.0,2.0,19,0.00,,,0.00,Wunderground v.1.15,2013-05-26 08:10:00,
2013-05-26 02:16:00,65.0,22.9,29.60,West,264,2.0,3.0,20,0.00,,,0.00,Wunderground v.1.15,2013-05-26 08:16:00,
2013-05-26 02:22:00,64.8,22.7,29.60,West,264,2.0,2.0,20,0.00,,,0.00,Wunderground v.1.15,2013-05-26 08:22:00,
2013-05-26 02:28:00,64.2,28.6,29.60,West,264,2.0,2.0,26,0.00,,,0.00,Wunderground v.1.15,2013-05-26 08:28:00,
2013-05-26 02:34:00,62.1,34.1,29.60,West,264,0.0,1.0,35,0.00,,,0.00,Wunderground v.1.15,2013-05-26 08:34:00,
2013-05-26 02:40:00,59.5,34.5,29.60,West,264,1.0,1.0,39,0.00,,,0.00,Wunderground v.1.15,2013-05-26 08:40:00,
2013-05-26 02:46:00,58.4,32.9,29.62,West,264,1.0,1.0,38,0.00,,,0.00,Wunderground v.1.15,2013-05-26 08:46:00,
2013-05-26 02:52:00,57.8,32.3,29.62,West,264,0.0,1.0,38,0.00,,,0.00,Wunderground v.1.15,2013-05-26 08:52:00,
2013-05-26 02:58:00,57.3,33.2,29.62,West,264,0.0,1.0,40,0.00,,,0.00,Wunderground v.1.15,2013-05-26 08:58:00,
2013-05-26 03:04:00,57.3,34.4,29.64,West,264,0.0,10.0,42,0.00,,,0.00,Wunderground v.1.15,2013-05-26 09:04:00,
2013-05-26 03:10:00,57.0,34.1,29.64,West,264,0.0,0.0,42,0.00,,,0.00,Wunderground v.1.15,2013-05-26 09:10:00,
2013-05-26 03:16:00,56.7,34.4,29.63,West,264,0.0,0.0,43,0.00,,,0.00,Wunderground v.1.15,2013-05-26 09:16:00,
2013-05-26 03:22:00,56.5,34.8,29.63,West,264,0.0,0.0,44,0.00,,,0.00,Wunderground v.1.15,2013-05-26 09:22:00,
2013-05-26 03:28:00,56.2,35.7,29.63,West,264,0.0,1.0,46,0.00,,,0.00,Wunderground v.1.15,2013-05-26 09:28:00,
2013-05-26 03:34:00,55.9,32.5,29.63,West,264,0.0,2.0,41,0.00,,,0.00,Wunderground v.1.15,2013-05-26 09:34:00,
2013-05-26 03:40:00,57.3,26.9,29.63,West,264,1.0,1.0,31,0.00,,,0.00,Wunderground v.1.15,2013-05-26 09:40:00,
2013-05-26 03:46:00,57.6,29.4,29.63,West,264,1.0,1.0,34,0.00,,,0.00,Wunderground v.1.15,2013-05-26 09:46:00,
2013-05-26 03:52:00,58.3,25.3,29.63,West,264,1.0,2.0,28,0.00,,,0.00,Wunderground v.1.15,2013-05-26 09:52:00,
2013-05-26 03:58:00,58.7,24.8,29.63,West,264,1.0,2.0,27,0.00,,,0.00,Wunderground v.1.15,2013-05-26 09:58:00,
2013-05-26 04:04:00,59.2,25.2,29.63,West,264,0.0,3.0,27,0.00,,,0.00,Wunderground v.1.15,2013-05-26 10:04:00,
2013-05-26 04:10:00,59.0,25.0,29.63,West,264,0.0,0.0,27,0.00,,,0.00,Wunderground v.1.15,2013-05-26 10:10:00,
2013-05-26 04:16:00,59.0,25.0,29.63,West,264,0.0,0.0,27,0.00,,,0.00,Wunderground v.1.15,2013-05-26 10:16:00,
2013-05-26 04:22:00,59.3,25.3,29.63,West,264,1.0,3.0,27,0.00,,,0.00,Wunderground v.1.15,2013-05-26 10:22:00,
2013-05-26 04:28:00,59.6,25.5,29.63,West,264,1.0,3.0,27,0.00,,,0.00,Wunderground v.1.15,2013-05-26 10:28:00,
2013-05-26 04:34:00,58.9,26.7,29.62,West,264,0.0,1.0,29,0.00,,,0.00,Wunderground v.1.15,2013-05-26 10:34:00,
2013-05-26 04:40:00,58.1,28.4,29.62,West,264,1.0,1.0,32,0.00,,,0.00,Wunderground v.1.15,2013-05-26 10:40:00,
2013-05-26 04:46:00,57.8,25.7,29.63,West,264,1.0,3.0,29,0.00,,,0.00,Wunderground v.1.15,2013-05-26 10:46:00,
2013-05-26 04:52:00,58.7,23.9,29.63,West,264,2.0,3.0,26,0.00,,,0.00,Wunderground v.1.15,2013-05-26 10:52:00,
2013-05-26 04:58:00,59.3,24.4,29.63,West,264,2.0,4.0,26,0.00,,,0.00,Wunderground v.1.15,2013-05-26 10:58:00,
2013-05-26 05:04:00,60.2,24.2,29.62,West,268,3.0,6.0,25,0.00,,,0.00,Wunderground v.1.15,2013-05-26 11:04:00,
2013-05-26 05:10:00,60.5,27.2,29.62,West,271,4.0,4.0,28,0.00,,,0.00,Wunderground v.1.15,2013-05-26 11:10:00,
2013-05-26 05:16:00,61.0,23.9,29.63,West,280,4.0,5.0,24,0.00,,,0.00,Wunderground v.1.15,2013-05-26 11:16:00,
2013-05-26 05:22:00,60.9,24.8,29.63,West,280,2.0,3.0,25,0.00,,,0.00,Wunderground v.1.15,2013-05-26 11:22:00,
2013-05-26 05:28:00,60.2,25.1,29.63,West,280,1.0,3.0,26,0.00,,,0.00,Wunderground v.1.15,2013-05-26 11:28:00,
2013-05-26 05:34:00,59.6,26.4,29.63,West,280,0.0,1.0,28,0.00,,,0.00,Wunderground v.1.15,2013-05-26 11:34:00,
2013-05-26 05:40:00,58.9,26.7,29.63,West,280,0.0,0.0,29,0.00,,,0.00,Wunderground v.1.15,2013-05-26 11:40:00,
2013-05-26 05:46:00,58.0,27.5,29.65,West,280,0.0,0.0,31,0.00,,,0.00,Wunderground v.1.15,2013-05-26 11:46:00,
2013-05-26 05:52:00,57.2,29.8,29.65,West,281,0.0,0.0,35,0.00,,,0.00,Wunderground v.1.15,2013-05-26 11:52:00,
2013-05-26 05:58:00,56.5,30.5,29.65,West,280,0.0,0.0,37,0.00,,,0.00,Wunderground v.1.15,2013-05-26 11:58:00,
2013-05-26 06:04:00,55.7,31.1,29.66,West,280,0.0,6.0,39,0.00,,,0.00,Wunderground v.1.15,2013-05-26 12:04:00,
2013-05-26 06:10:00,55.1,32.4,29.66,West,280,0.0,0.0,42,0.00,,,0.00,Wunderground v.1.15,2013-05-26 12:10:00,
2013-05-26 06:16:00,54.7,33.2,29.68,West,280,0.0,0.0,44,0.00,,,0.00,Wunderground v.1.15,2013-05-26 12:16:00,
2013-05-26 06:22:00,54.5,34.1,29.68,West,280,0.0,0.0,46,0.00,,,0.00,Wunderground v.1.15,2013-05-26 12:22:00,
2013-05-26 06:28:00,54.2,34.9,29.68,West,280,0.0,0.0,48,0.00,,,0.00,Wunderground v.1.15,2013-05-26 12:28:00,
2013-05-26 06:34:00,54.2,34.9,29.69,West,281,0.0,0.0,48,0.00,,,0.00,Wunderground v.1.15,2013-05-26 12:34:00,
2013-05-26 06:40:00,54.5,34.1,29.69,West,281,0.0,0.0,46,0.00,,,0.00,Wunderground v.1.15,2013-05-26 12:40:00,
2013-05-26 06:46:00,55.0,32.3,29.68,West,280,0.0,0.0,42,0.00,,,0.00,Wunderground v.1.15,2013-05-26 12:46:00,
2013-05-26 06:52:00,56.2,32.8,29.68,West,281,0.0,0.0,41,0.00,,,0.00,Wunderground v.1.15,2013-05-26 12:52:00,
2013-05-26 06:58:00,56.5,36.5,29.68,West,279,0.0,0.0,47,0.00,,,0.00,Wunderground v.1.15,2013-05-26 12:58:00,
2013-05-26 07:04:00,56.6,34.3,29.67,West,279,0.0,1.0,43,0.00,,,0.00,Wunderground v.1.15,2013-05-26 13:04:00,
2013-05-26 07:10:00,56.9,34.0,29.67,West,279,1.0,1.0,42,0.00,,,0.00,Wunderground v.1.15,2013-05-26 13:10:00,
2013-05-26 07:16:00,57.3,33.2,29.68,East,80,0.0,1.0,40,0.00,,,0.00,Wunderground v.1.15,2013-05-26 13:16:00,
2013-05-26 07:22:00,58.1,35.1,29.68,East,82,0.0,0.0,42,0.00,,,0.00,Wunderground v.1.15,2013-05-26 13:22:00,
2013-05-26 07:28:00,58.6,37.3,29.68,East,82,1.0,3.0,45,0.00,,,0.00,Wunderground v.1.15,2013-05-26 13:28:00,
2013-05-26 07:34:00,59.0,37.1,29.67,East,82,1.0,1.0,44,0.00,,,0.00,Wunderground v.1.15,2013-05-26 13:34:00,
2013-05-26 07:40:00,60.4,34.0,29.67,SSE,147,2.0,2.0,37,0.00,,,0.00,Wunderground v.1.15,2013-05-26 13:40:00,
2013-05-26 07:46:00,62.0,34.0,29.66,SE,146,3.0,5.0,35,0.00,,,0.00,Wunderground v.1.15,2013-05-26 13:46:00,
2013-05-26 07:52:00,62.6,35.9,29.66,WSW,241,1.0,2.0,37,0.00,,,0.00,Wunderground v.1.15,2013-05-26 13:52:00,
2013-05-26 07:58:00,63.1,39.6,29.66,WSW,241,1.0,3.0,42,0.00,,,0.00,Wunderground v.1.15,2013-05-26 13:58:00,
2013-05-26 08:04:00,63.4,39.9,29.65,WSW,241,1.0,3.0,42,0.00,,,0.00,Wunderground v.1.15,2013-05-26 14:04:00,
2013-05-26 08:10:00,63.9,38.4,29.65,WSW,241,1.0,1.0,39,0.00,,,0.00,Wunderground v.1.15,2013-05-26 14:10:00,
2013-05-26 08:16:00,64.7,41.1,29.67,WSW,241,0.0,1.0,42,0.00,,,0.00,Wunderground v.1.15,2013-05-26 14:16:00,
2013-05-26 08:22:00,65.3,40.3,29.67,WSW,241,1.0,1.0,40,0.00,,,0.00,Wunderground v.1.15,2013-05-26 14:22:00,
2013-05-26 08:28:00,65.8,42.1,29.67,WSW,241,1.0,1.0,42,0.00,,,0.00,Wunderground v.1.15,2013-05-26 14:28:00,
2013-05-26 08:34:00,66.1,42.3,29.66,WSW,241,0.0,1.0,42,0.00,,,0.00,Wunderground v.1.15,2013-05-26 14:34:00,
2013-05-26 08:40:00,66.3,43.1,29.66,West,263,0.0,0.0,43,0.00,,,0.00,Wunderground v.1.15,2013-05-26 14:40:00,
2013-05-26 08:46:00,66.3,44.3,29.65,West,263,1.0,1.0,45,0.00,,,0.00,Wunderground v.1.15,2013-05-26 14:46:00,
2013-05-26 08:52:00,66.9,43.7,29.65,West,263,1.0,1.0,43,0.00,,,0.00,Wunderground v.1.15,2013-05-26 14:52:00,
2013-05-26 08:58:00,68.3,41.7,29.65,West,263,1.0,2.0,38,0.00,,,0.00,Wunderground v.1.15,2013-05-26 14:58:00,
2013-05-26 09:04:00,69.6,37.6,29.65,West,263,0.0,3.0,31,0.00,,,0.00,Wunderground v.1.15,2013-05-26 15:04:00,
2013-05-26 09:10:00,70.9,41.9,29.65,West,263,0.0,0.0,35,0.00,,,0.00,Wunderground v.1.15,2013-05-26 15:10:00,
2013-05-26 09:16:00,72.0,36.2,29.65,West,263,0.0,2.0,27,0.00,,,0.00,Wunderground v.1.15,2013-05-26 15:16:00,
2013-05-26 09:22:00,73.0,36.1,29.65,West,262,0.0,0.0,26,0.00,,,0.00,Wunderground v.1.15,2013-05-26 15:22:00,
2013-05-26 09:28:00,73.9,32.6,29.65,West,263,2.0,5.0,22,0.00,,,0.00,Wunderground v.1.15,2013-05-26 15:28:00,
2013-05-26 09:34:00,74.4,33.1,29.63,West,274,3.0,3.0,22,0.00,,,0.00,Wunderground v.1.15,2013-05-26 15:34:00,
2013-05-26 09:40:00,74.9,28.5,29.63,WNW,285,3.0,4.0,18,0.00,,,0.00,Wunderground v.1.15,2013-05-26 15:40:00,
2013-05-26 09:46:00,75.4,28.9,29.64,West,271,4.0,6.0,18,0.00,,,0.00,Wunderground v.1.15,2013-05-26 15:46:00,
2013-05-26 09:52:00,76.0,29.4,29.64,West,269,4.0,6.0,18,0.00,,,0.00,Wunderground v.1.15,2013-05-26 15:52:00,
2013-05-26 09:58:00,76.5,25.4,29.64,WSW,257,4.0,11.0,15,0.00,,,0.00,Wunderground v.1.15,2013-05-26 15:58:00,
2013-05-26 10:04:00,76.8,25.6,29.63,WSW,257,5.0,6.0,15,0.00,,,0.00,Wunderground v.1.15,2013-05-26 16:04:00,
2013-05-26 10:10:00,77.4,24.4,29.63,West,276,4.0,4.0,14,0.00,,,0.00,Wunderground v.1.15,2013-05-26 16:10:00,
2013-05-26 10:16:00,78.1,25.0,29.63,WSW,244,3.0,5.0,14,0.00,,,0.00,Wunderground v.1.15,2013-05-26 16:16:00,
2013-05-26 10:22:00,78.3,25.1,29.63,West,266,3.0,4.0,14,0.00,,,0.00,Wunderground v.1.15,2013-05-26 16:22:00,
2013-05-26 10:28:00,78.6,21.7,29.63,West,264,3.0,4.0,12,0.00,,,0.00,Wunderground v.1.15,2013-05-26 16:28:00,
2013-05-26 10:34:00,79.0,20.0,29.62,West,267,2.0,3.0,11,0.00,,,0.00,Wunderground v.1.15,2013-05-26 16:34:00,
2013-05-26 10:40:00,79.0,17.7,29.62,West,267,1.0,1.0,10,0.00,,,0.00,Wunderground v.1.15,2013-05-26 16:40:00,
2013-05-26 10:46:00,79.2,20.1,29.62,West,273,1.0,1.0,11,0.00,,,0.00,Wunderground v.1.15,2013-05-26 16:46:00,
2013-05-26 10:52:00,79.0,23.9,29.62,NNE,28,1.0,1.0,13,0.00,,,0.00,Wunderground v.1.15,2013-05-26 16:52:00,
2013-05-26 10:58:00,78.8,21.9,29.62,NNE,27,1.0,1.0,12,0.00,,,0.00,Wunderground v.1.15,2013-05-26 16:58:00,
2013-05-26 11:04:00,79.0,22.0,29.62,West,267,2.0,11.0,12,0.00,,,0.00,Wunderground v.1.15,2013-05-26 17:04:00,
2013-05-26 11:10:00,79.0,20.0,29.62,North,0,1.0,3.0,11,0.00,,,0.00,Wunderground v.1.15,2013-05-26 17:10:00,
2013-05-26 11:16:00,78.8,19.8,29.64,North,0,1.0,3.0,11,0.00,,,0.00,Wunderground v.1.15,2013-05-26 17:16:00,
2013-05-26 11:22:00,78.5,21.6,29.64,North,1,0.0,1.0,12,0.00,,,0.00,Wunderground v.1.15,2013-05-26 17:22:00,
2013-05-26 11:28:00,78.6,19.7,29.64,North,1,0.0,1.0,11,0.00,,,0.00,Wunderground v.1.15,2013-05-26 17:28:00,
2013-05-26 11:34:00,80.3,21.0,29.64,North,5,1.0,1.0,11,0.00,,,0.00,Wunderground v.1.15,2013-05-26 17:34:00,
2013-05-26 11:40:00,81.6,27.8,29.64,ESE,102,1.0,3.0,14,0.00,,,0.00,Wunderground v.1.15,2013-05-26 17:40:00,
2013-05-26 11:46:00,82.2,26.4,29.60,North,10,2.0,4.0,13,0.00,,,0.00,Wunderground v.1.15,2013-05-26 17:46:00,
2013-05-26 11:52:00,82.4,24.7,29.60,NE,38,1.0,3.0,12,0.00,,,0.00,Wunderground v.1.15,2013-05-26 17:52:00,
2013-05-26 11:58:00,82.6,22.7,29.60,NE,39,1.0,3.0,11,0.00,,,0.00,Wunderground v.1.15,2013-05-26 17:58:00,
2013-05-26 12:04:00,83.0,25.1,29.60,NE,41,1.0,6.0,12,0.00,,,0.00,Wunderground v.1.15,2013-05-26 18:04:00,
2013-05-26 12:10:00,83.2,25.3,29.60,NE,56,1.0,1.0,12,0.00,,,0.00,Wunderground v.1.15,2013-05-26 18:10:00,
2013-05-26 12:16:00,83.0,25.1,29.60,ESE,115,2.0,8.0,12,0.00,,,0.00,Wunderground v.1.15,2013-05-26 18:16:00,
2013-05-26 12:22:00,82.8,26.9,29.60,ESE,102,2.0,3.0,13,0.00,,,0.00,Wunderground v.1.15,2013-05-26 18:22:00,
2013-05-26 12:28:00,81.1,21.6,29.60,SE,138,3.0,4.0,11,0.00,,,0.00,Wunderground v.1.15,2013-05-26 18:28:00,
2013-05-26 12:34:00,81.4,27.6,29.61,SE,126,2.0,3.0,14,0.00,,,0.00,Wunderground v.1.15,2013-05-26 18:34:00,
2013-05-26 12:40:00,82.8,26.9,29.61,SE,126,1.0,1.0,13,0.00,,,0.00,Wunderground v.1.15,2013-05-26 18:40:00,
2013-05-26 12:46:00,82.6,26.7,29.59,East,98,2.0,5.0,13,0.00,,,0.00,Wunderground v.1.15,2013-05-26 18:46:00,
2013-05-26 12:52:00,83.2,20.9,29.59,East,85,2.0,2.0,10,0.00,,,0.00,Wunderground v.1.15,2013-05-26 18:52:00,
2013-05-26 12:58:00,83.0,20.8,29.59,ESE,108,2.0,3.0,10,0.00,,,0.00,Wunderground v.1.15,2013-05-26 18:58:00,
2013-05-26 13:04:00,83.4,23.4,29.59,NE,40,2.0,5.0,11,0.00,,,0.00,Wunderground v.1.15,2013-05-26 19:04:00,
2013-05-26 13:10:00,83.6,23.5,29.59,NE,39,1.0,1.0,11,0.00,,,0.00,Wunderground v.1.15,2013-05-26 19:10:00,
2013-05-26 13:16:00,83.8,23.7,29.58,NE,36,2.0,3.0,11,0.00,,,0.00,Wunderground v.1.15,2013-05-26 19:16:00,
2013-05-26 13:22:00,83.8,25.7,29.58,NE,39,2.0,2.0,12,0.00,,,0.00,Wunderground v.1.15,2013-05-26 19:22:00,
2013-05-26 13:28:00,84.3,24.0,29.58,NNE,14,1.0,2.0,11,0.00,,,0.00,Wunderground v.1.15,2013-05-26 19:28:00,
2013-05-26 13:34:00,84.3,24.0,29.57,ENE,57,1.0,4.0,11,0.00,,,0.00,Wunderground v.1.15,2013-05-26 19:34:00,
2013-05-26 13:40:00,84.5,26.3,29.57,East,98,2.0,5.0,12,0.00,,,0.00,Wunderground v.1.15,2013-05-26 19:40:00,
2013-05-26 13:46:00,83.8,23.7,29.57,ESE,118,4.0,6.0,11,0.00,,,0.00,Wunderground v.1.15,2013-05-26 19:46:00,
2013-05-26 13:52:00,83.8,23.7,29.57,ESE,118,4.0,9.0,11,0.00,,,0.00,Wunderground v.1.15,2013-05-26 19:52:00,
2013-05-26 13:58:00,83.8,23.7,29.57,ESE,111,4.0,9.0,11,0.00,,,0.00,Wunderground v.1.15,2013-05-26 19:58:00,
2013-05-26 14:04:00,83.4,23.4,29.56,ESE,117,4.0,7.0,11,0.00,,,0.00,Wunderground v.1.15,2013-05-26 20:04:00,
2013-05-26 14:10:00,83.4,23.4,29.56,ESE,109,3.0,3.0,11,0.00,,,0.00,Wunderground v.1.15,2013-05-26 20:10:00,
2013-05-26 14:16:00,82.2,22.4,29.63,East,101,5.0,9.0,11,0.00,,,0.00,Wunderground v.1.15,2013-05-26 20:16:00,
2013-05-26 14:22:00,81.2,21.7,29.63,ESE,108,5.0,7.0,11,0.00,,,0.00,Wunderground v.1.15,2013-05-26 20:22:00,
2013-05-26 14:28:00,80.7,21.3,29.63,East,98,4.0,7.0,11,0.00,,,0.00,Wunderground v.1.15,2013-05-26 20:28:00,
2013-05-26 14:34:00,80.5,25.1,29.63,ESE,106,3.0,4.0,13,0.00,,,0.00,Wunderground v.1.15,2013-05-26 20:34:00,
2013-05-26 14:40:00,80.9,27.2,29.63,East,97,2.0,2.0,14,0.00,,,0.00,Wunderground v.1.15,2013-05-26 20:40:00,
2013-05-26 14:46:00,81.1,27.4,29.62,East,88,2.0,3.0,14,0.00,,,0.00,Wunderground v.1.15,2013-05-26 20:46:00,
2013-05-26 14:52:00,80.5,30.2,29.62,East,94,3.0,3.0,16,0.00,,,0.00,Wunderground v.1.15,2013-05-26 20:52:00,
2013-05-26 14:58:00,79.9,29.7,29.62,ESE,115,2.0,4.0,16,0.00,,,0.00,Wunderground v.1.15,2013-05-26 20:58:00,
2013-05-26 15:04:00,79.8,29.6,29.63,East,98,2.0,13.0,16,0.00,,,0.00,Wunderground v.1.15,2013-05-26 21:04:00,
2013-05-26 15:10:00,80.3,32.9,29.63,East,98,1.0,1.0,18,0.00,,,0.00,Wunderground v.1.15,2013-05-26 21:10:00,
2013-05-26 15:16:00,80.5,30.2,29.61,ENE,76,1.0,1.0,16,0.00,,,0.00,Wunderground v.1.15,2013-05-26 21:16:00,
2013-05-26 15:22:00,80.5,31.7,29.61,East,80,1.0,1.0,17,0.00,,,0.00,Wunderground v.1.15,2013-05-26 21:22:00,
2013-05-26 15:28:00,81.1,30.6,29.61,NE,41,1.0,5.0,16,0.00,,,0.00,Wunderground v.1.15,2013-05-26 21:28:00,
2013-05-26 15:34:00,80.9,32.0,29.61,East,79,2.0,3.0,17,0.00,,,0.00,Wunderground v.1.15,2013-05-26 21:34:00,
2013-05-26 15:40:00,81.1,33.6,29.61,East,91,2.0,3.0,18,0.00,,,0.00,Wunderground v.1.15,2013-05-26 21:40:00,
2013-05-26 15:46:00,81.6,32.5,29.61,East,79,2.0,3.0,17,0.00,,,0.00,Wunderground v.1.15,2013-05-26 21:46:00,
2013-05-26 15:52:00,81.8,34.1,29.61,SSE,148,1.0,2.0,18,0.00,,,0.00,Wunderground v.1.15,2013-05-26 21:52:00,
2013-05-26 15:58:00,81.2,32.2,29.61,ENE,66,1.0,2.0,17,0.00,,,0.00,Wunderground v.1.15,2013-05-26 21:58:00,
2013-05-26 16:04:00,80.7,31.8,29.61,East,100,2.0,11.0,17,0.00,,,0.00,Wunderground v.1.15,2013-05-26 22:04:00,
2013-05-26 16:10:00,80.3,31.5,29.61,ESE,106,2.0,2.0,17,0.00,,,0.00,Wunderground v.1.15,2013-05-26 22:10:00,
2013-05-26 16:16:00,79.9,31.2,29.61,East,96,2.0,4.0,17,0.00,,,0.00,Wunderground v.1.15,2013-05-26 22:16:00,
2013-05-26 16:22:00,79.8,31.1,29.61,East,97,1.0,2.0,17,0.00,,,0.00,Wunderground v.1.15,2013-05-26 22:22:00,
2013-05-26 16:28:00,79.8,28.0,29.61,East,98,1.0,2.0,15,0.00,,,0.00,Wunderground v.1.15,2013-05-26 22:28:00,
2013-05-26 16:34:00,79.6,29.4,29.63,East,98,1.0,2.0,16,0.00,,,0.00,Wunderground v.1.15,2013-05-26 22:34:00,
2013-05-26 16:40:00,79.4,32.2,29.63,SE,134,2.0,2.0,18,0.00,,,0.00,Wunderground v.1.15,2013-05-26 22:40:00,
2013-05-26 16:46:00,79.0,34.5,29.63,SE,134,2.0,2.0,20,0.00,,,0.00,Wunderground v.1.15,2013-05-26 22:46:00,
2013-05-26 16:52:00,78.8,34.3,29.63,SE,128,1.0,2.0,20,0.00,,,0.00,Wunderground v.1.15,2013-05-26 22:52:00,
2013-05-26 16:58:00,78.5,35.3,29.63,SE,131,1.0,9.0,21,0.00,,,0.00,Wunderground v.1.15,2013-05-26 22:58:00,
2013-05-26 17:04:00,77.9,37.1,29.64,ESE,108,1.0,6.0,23,0.00,,,0.00,Wunderground v.1.15,2013-05-26 23:04:00,
2013-05-26 17:10:00,77.6,35.7,29.64,ESE,107,0.0,1.0,22,0.00,,,0.00,Wunderground v.1.15,2013-05-26 23:10:00,
2013-05-26 17:16:00,77.4,36.7,29.66,ESE,106,1.0,2.0,23,0.00,,,0.00,Wunderground v.1.15,2013-05-26 23:16:00,
2013-05-26 17:22:00,77.4,34.4,29.66,ESE,105,1.0,1.0,21,0.00,,,0.00,Wunderground v.1.15,2013-05-26 23:22:00,
2013-05-26 17:28:00,77.4,35.6,29.66,ESE,106,0.0,2.0,22,0.00,,,0.00,Wunderground v.1.15,2013-05-26 23:28:00,
2013-05-26 17:34:00,78.1,26.7,29.65,East,95,2.0,5.0,15,0.00,,,0.00,Wunderground v.1.15,2013-05-26 23:34:00,
2013-05-26 17:40:00,77.9,24.8,29.65,SSE,148,7.0,18.0,14,0.00,,,0.00,Wunderground v.1.15,2013-05-26 23:40:00,
2013-05-26 17:46:00,77.9,26.5,29.66,East,96,10.0,18.0,15,0.00,,,0.00,Wunderground v.1.15,2013-05-26 23:46:00,
2013-05-26 17:52:00,77.7,26.3,29.66,East,94,6.0,9.0,15,0.00,,,0.00,Wunderground v.1.15,2013-05-26 23:52:00,
2013-05-26 17:58:00,78.1,28.2,29.66,South,184,4.0,9.0,16,0.00,,,0.00,Wunderground v.1.15,2013-05-26 23:58:00,
2013-05-26 18:04:00,78.1,26.7,29.64,East,90,3.0,10.0,15,0.00,,,0.00,Wunderground v.1.15,2013-05-27 00:04:00,
2013-05-26 18:10:00,77.9,29.5,29.64,ESE,121,2.0,2.0,17,0.00,,,0.00,Wunderground v.1.15,2013-05-27 00:10:00,
2013-05-26 18:16:00,77.4,30.5,29.64,SE,127,2.0,4.0,18,0.00,,,0.00,Wunderground v.1.15,2013-05-27 00:16:00,
2013-05-26 18:22:00,77.2,29.0,29.64,SE,146,2.0,2.0,17,0.00,,,0.00,Wunderground v.1.15,2013-05-27 00:22:00,
2013-05-26 18:28:00,77.0,30.2,29.64,SE,139,2.0,2.0,18,0.00,,,0.00,Wunderground v.1.15,2013-05-27 00:28:00,
2013-05-26 18:34:00,76.5,31.1,29.65,East,101,3.0,6.0,19,0.00,,,0.00,Wunderground v.1.15,2013-05-27 00:34:00,
2013-05-26 18:40:00,76.3,31.0,29.65,East,101,2.0,2.0,19,0.00,,,0.00,Wunderground v.1.15,2013-05-27 00:40:00,
2013-05-26 18:46:00,76.1,32.1,29.66,East,101,0.0,2.0,20,0.00,,,0.00,Wunderground v.1.15,2013-05-27 00:46:00,
2013-05-26 18:52:00,76.0,30.7,29.66,East,101,0.0,0.0,19,0.00,,,0.00,Wunderground v.1.15,2013-05-27 00:52:00,
2013-05-26 18:58:00,75.8,34.2,29.66,East,101,0.0,0.0,22,0.00,,,0.00,Wunderground v.1.15,2013-05-27 00:58:00,
2013-05-26 19:04:00,75.4,33.9,29.65,East,101,0.0,15.0,22,0.00,,,0.00,Wunderground v.1.15,2013-05-27 01:04:00,
2013-05-26 19:10:00,75.1,32.5,29.65,East,101,0.0,0.0,21,0.00,,,0.00,Wunderground v.1.15,2013-05-27 01:10:00,
2013-05-26 19:16:00,74.9,33.5,29.63,East,101,0.0,0.0,22,0.00,,,0.00,Wunderground v.1.15,2013-05-27 01:16:00,
2013-05-26 19:22:00,74.7,33.3,29.63,East,101,0.0,0.0,22,0.00,,,0.00,Wunderground v.1.15,2013-05-27 01:22:00,
2013-05-26 19:28:00,74.6,33.2,29.63,East,101,1.0,1.0,22,0.00,,,0.00,Wunderground v.1.15,2013-05-27 01:28:00,
2013-05-26 19:34:00,74.7,32.1,29.64,East,101,1.0,1.0,21,0.00,,,0.00,Wunderground v.1.15,2013-05-27 01:34:00,
2013-05-26 19:40:00,74.7,32.1,29.64,NNW,329,2.0,6.0,21,0.00,,,0.00,Wunderground v.1.15,2013-05-27 01:40:00,
2013-05-26 19:46:00,75.1,30.0,29.63,WNW,286,6.0,13.0,19,0.00,,,0.00,Wunderground v.1.15,2013-05-27 01:46:00,
2013-05-26 19:52:00,74.6,30.9,29.63,West,279,6.0,7.0,20,0.00,,,0.00,Wunderground v.1.15,2013-05-27 01:52:00,
2013-05-26 19:58:00,74.2,31.7,29.63,WNW,303,5.0,9.0,21,0.00,,,0.00,Wunderground v.1.15,2013-05-27 01:58:00,
2013-05-26 20:04:00,73.9,31.5,29.63,WNW,291,5.0,6.0,21,0.00,,,0.00,Wunderground v.1.15,2013-05-27 02:04:00,
2013-05-26 20:10:00,73.5,31.1,29.63,NW,313,5.0,9.0,21,0.00,,,0.00,Wunderground v.1.15,2013-05-27 02:10:00,
2013-05-26 20:16:00,73.2,32.1,29.60,NW,316,6.0,13.0,22,0.00,,,0.00,Wunderground v.1.15,2013-05-27 02:16:00,
2013-05-26 20:22:00,73.3,31.0,29.60,West,262,7.0,12.0,21,0.00,,,0.00,Wunderground v.1.15,2013-05-27 02:22:00,
2013-05-26 20:28:00,73.2,32.1,29.60,WNW,285,6.0,12.0,22,0.00,,,0.00,Wunderground v.1.15,2013-05-27 02:28:00,
2013-05-26 20:34:00,73.0,29.5,29.59,West,275,4.0,8.0,20,0.00,,,0.00,Wunderground v.1.15,2013-05-27 02:34:00,
2013-05-26 20:40:00,74.6,28.3,29.59,WNW,288,7.0,7.0,18,0.00,,,0.00,Wunderground v.1.15,2013-05-27 02:40:00,
2013-05-26 20:46:00,75.1,27.3,29.58,SW,226,7.0,9.0,17,0.00,,,0.00,Wunderground v.1.15,2013-05-27 02:46:00,
2013-05-26 20:52:00,75.3,27.4,29.58,WNW,282,8.0,15.0,17,0.00,,,0.00,Wunderground v.1.15,2013-05-27 02:52:00,
2013-05-26 20:58:00,75.1,28.7,29.58,WNW,288,7.0,15.0,18,0.00,,,0.00,Wunderground v.1.15,2013-05-27 02:58:00,
2013-05-26 21:04:00,74.6,29.6,29.58,West,259,5.0,16.0,19,0.00,,,0.00,Wunderground v.1.15,2013-05-27 03:04:00,
2013-05-26 21:10:00,73.7,30.1,29.58,West,265,6.0,11.0,20,0.00,,,0.00,Wunderground v.1.15,2013-05-27 03:10:00,
2013-05-26 21:16:00,73.2,29.7,29.56,West,281,6.0,11.0,20,0.00,,,0.00,Wunderground v.1.15,2013-05-27 03:16:00,
2013-05-26 21:22:00,72.8,29.4,29.56,West,275,6.0,9.0,20,0.00,,,0.00,Wunderground v.1.15,2013-05-27 03:22:00,
2013-05-26 21:28:00,72.8,29.4,29.56,West,270,6.0,9.0,20,0.00,,,0.00,Wunderground v.1.15,2013-05-27 03:28:00,
2013-05-26 21:34:00,72.7,29.3,29.56,SW,230,4.0,5.0,20,0.00,,,0.00,Wunderground v.1.15,2013-05-27 03:34:00,
2013-05-26 21:40:00,72.5,29.1,29.56,West,281,2.0,2.0,20,0.00,,,0.00,Wunderground v.1.15,2013-05-27 03:40:00,
2013-05-26 21:46:00,72.1,30.0,29.57,West,281,1.0,3.0,21,0.00,,,0.00,Wunderground v.1.15,2013-05-27 03:46:00,
2013-05-26 21:52:00,71.6,30.7,29.57,West,277,2.0,8.0,22,0.00,,,0.00,Wunderground v.1.15,2013-05-27 03:52:00,
2013-05-26 21:58:00,71.1,30.3,29.57,WNW,289,3.0,8.0,22,0.00,,,0.00,Wunderground v.1.15,2013-05-27 03:58:00,
2013-05-26 22:02:00,70.8,31.1,29.57,WNW,290,4.0,17.0,23,0.00,,,0.00,Wunderground v.1.15,2013-05-27 04:02:00,
2013-05-26 22:06:00,70.4,30.8,29.57,West,278,3.0,17.0,23,0.00,,,0.00,Wunderground v.1.15,2013-05-27 04:06:00,
2013-05-26 22:08:00,70.3,30.7,29.57,WNW,290,3.0,17.0,23,0.00,,,0.00,Wunderground v.1.15,2013-05-27 04:08:00,
2013-05-26 22:12:00,69.9,31.4,29.57,West,266,3.0,6.0,24,0.00,,,0.00,Wunderground v.1.15,2013-05-27 04:12:00,
2013-05-26 22:18:00,69.6,31.2,29.57,NNW,342,5.0,8.0,24,0.00,,,0.00,Wunderground v.1.15,2013-05-27 04:18:00,
2013-05-26 22:20:00,69.4,31.0,29.57,West,275,6.0,6.0,24,0.00,,,0.00,Wunderground v.1.15,2013-05-27 04:20:00,
2013-05-26 22:26:00,69.3,30.9,29.57,WNW,285,7.0,9.0,24,0.00,,,0.00,Wunderground v.1.15,2013-05-27 04:26:00,
2013-05-26 22:32:00,69.8,30.3,29.59,South,190,6.0,7.0,23,0.00,,,0.00,Wunderground v.1.15,2013-05-27 04:32:00,
2013-05-26 22:38:00,69.8,30.3,29.59,South,190,2.0,7.0,23,0.00,,,0.00,Wunderground v.1.15,2013-05-27 04:38:00,
2013-05-26 22:44:00,69.4,31.0,29.59,South,190,0.0,1.0,24,0.00,,,0.00,Wunderground v.1.15,2013-05-27 04:44:00,
2013-05-26 22:50:00,68.8,30.5,29.58,SSW,198,1.0,2.0,24,0.00,,,0.00,Wunderground v.1.15,2013-05-27 04:50:00,
2013-05-26 22:56:00,68.4,31.2,29.58,SSW,198,2.0,3.0,25,0.00,,,0.00,Wunderground v.1.15,2013-05-27 04:56:00,
2013-05-26 23:02:00,68.1,31.9,29.58,South,190,2.0,10.0,26,0.00,,,0.00,Wunderground v.1.15,2013-05-27 05:02:00,
2013-05-26 23:08:00,67.6,31.5,29.58,SSW,196,2.0,10.0,26,0.00,,,0.00,Wunderground v.1.15,2013-05-27 05:08:00,
2013-05-26 23:14:00,67.9,30.8,29.58,SSW,200,3.0,4.0,25,0.00,,,0.00,Wunderground v.1.15,2013-05-27 05:14:00,
2013-05-26 23:20:00,67.9,30.8,29.56,SSW,200,1.0,1.0,25,0.00,,,0.00,Wunderground v.1.15,2013-05-27 05:20:00,
2013-05-26 23:26:00,67.9,30.8,29.56,SSW,200,0.0,1.0,25,0.00,,,0.00,Wunderground v.1.15,2013-05-27 05:26:00,
2013-05-26 23:32:00,67.8,30.7,29.56,West,261,0.0,3.0,25,0.00,,,0.00,Wunderground v.1.15,2013-05-27 05:32:00,
2013-05-26 23:38:00,68.1,29.9,29.56,WNW,288,2.0,6.0,24,0.00,,,0.00,Wunderground v.1.15,2013-05-27 05:38:00,
2013-05-26 23:44:00,68.4,29.1,29.56,NW,312,3.0,4.0,23,0.00,,,0.00,Wunderground v.1.15,2013-05-27 05:44:00,
2013-05-26 23:50:00,68.6,29.3,29.55,NW,314,2.0,2.0,23,0.00,,,0.00,Wunderground v.1.15,2013-05-27 05:50:00,
2013-05-26 23:56:00,68.3,29.0,29.55,NW,315,1.0,4.0,23,0.00,,,0.00,Wunderground v.1.15,2013-05-27 05:56:00,